Weather History for Moriarty, NM

Change the Weather History Date:

Friday, September 20, 2013

  Actual Average (KABQ) Record (KABQ)
Temperature  
Mean Temperature 62 °F 68 °F  
Max Temperature 71 °F 79 °F 93 °F (1956)
Min Temperature 52 °F 56 °F 34 °F (1912)
Degree Days  
Heating Degree Days 4 1  
Month to date heating degree days 6  
Since 1 July heating degree days 6  
Cooling Degree Days 0 4  
Month to date cooling degree days 131  
Year to date cooling degree days 1288  
Growing Degree Days 12 (Base 50)    
Moisture  
Dew Point 51 °F    
Average Humidity 73    
Maximum Humidity 94    
Minimum Humidity 48    
Precipitation  
Precipitation 0.00 in 0.03 in 0.95 in (1974)
Month to date precipitation 0.71  
Year to date precipitation 6.99  
Snow  
Snow 0.00 in - - ()
Month to date snowfall  
Since 1 July snowfall  
Since 1 September snowfall  
Snow Depth -    
Sea Level Pressure  
Sea Level Pressure 30.23 in    
Wind  
Wind Speed 8 mph (SE)    
Max Wind Speed 17 mph    
Max Gust Speed 25 mph    
Visibility 10 miles    
Events      
T = Trace of Precipitation, MM = Missing Value Source: NWS Daily Summary

Daily Weather History Graph

Daily Weather History Graph

Search for Another Location

Airport:

Trip Planner

Search our weather history database for the weather conditions in past years. The results will help you decide how hot, cold, wet, or windy it might be!

Date:

Astronomy

Sep. 20, 2013 Rise Set
Actual Time 6:50 AM MDT 7:03 PM MDT
Civil Twilight 6:25 AM MDT 7:28 PM MDT
Nautical Twilight 5:55 AM MDT 7:58 PM MDT
Astronomical Twilight 5:25 AM MDT 8:27 PM MDT
Moon 7:44 PM MDT (9/20) 8:03 AM MDT (9/20)
Length of Visible Light 13h 03m
Length of Day
12h 12m
Full, 98% of the Moon is Illuminated
Sep 20
Full
Sep 26
Last Quarter
Oct 4
New
Oct 11
First Quarter
Oct 18
Full

Hourly Weather History & Observations

Time (MDT) Temp. Dew Point Humidity Pressure Visibility Wind Dir Wind Speed Gust Speed Precip Events Conditions
12:15 AM 55.4 °F 51.8 °F 88% 30.17 in 10.0 mi East 8.1 mph - N/A   Clear
12:35 AM 57.6 °F 50.4 °F 77% 30.18 in 10.0 mi East 12.7 mph - N/A   Clear
12:55 AM 56.8 °F 49.5 °F 76% 30.19 in 10.0 mi East 12.7 mph - N/A   Clear
1:15 AM 56.8 °F 49.8 °F 77% 30.19 in 10.0 mi East 15.0 mph - N/A   Clear
1:35 AM 56.5 °F 50.0 °F 79% 30.19 in 10.0 mi East 13.8 mph - N/A   Clear
1:55 AM 55.9 °F 50.0 °F 80% 30.20 in 10.0 mi East 15.0 mph 19.6 mph N/A   Clear
2:15 AM 55.4 °F 50.2 °F 83% 30.20 in 10.0 mi East 16.1 mph 19.6 mph N/A   Scattered Clouds
2:35 AM 55.6 °F 50.5 °F 83% 30.21 in 10.0 mi East 17.3 mph 24.2 mph N/A   Mostly Cloudy
2:55 AM 55.8 °F 50.2 °F 82% 30.21 in 10.0 mi East 13.8 mph 25.3 mph N/A   Scattered Clouds
3:15 AM 55.9 °F 50.4 °F 82% 30.22 in 10.0 mi East 8.1 mph 23.0 mph N/A   Mostly Cloudy
3:35 AM 55.9 °F 50.7 °F 83% 30.23 in 10.0 mi ESE 6.9 mph - N/A   Overcast
3:55 AM 56.3 °F 50.7 °F 82% 30.23 in 10.0 mi WSW 3.5 mph - N/A   Overcast
4:15 AM 55.8 °F 50.4 °F 82% 30.24 in 10.0 mi ESE 3.5 mph - N/A   Mostly Cloudy
4:35 AM 55.4 °F 50.2 °F 83% 30.24 in 10.0 mi Calm Calm - N/A   Mostly Cloudy
4:55 AM 54.0 °F 50.0 °F 86% 30.24 in 10.0 mi Calm Calm - N/A   Mostly Cloudy
5:15 AM 54.5 °F 50.9 °F 88% 30.25 in 10.0 mi Calm Calm - N/A   Overcast
5:35 AM 55.0 °F 51.1 °F 86% 30.25 in 10.0 mi Calm Calm - N/A   Overcast
5:55 AM 55.4 °F 50.9 °F 85% 30.25 in 10.0 mi WSW 3.5 mph - N/A   Overcast
6:15 AM 53.6 °F 50.4 °F 89% 30.25 in 10.0 mi WSW 4.6 mph - N/A   Mostly Cloudy
6:35 AM 53.1 °F 50.4 °F 91% 30.25 in 10.0 mi Calm Calm - N/A   Overcast
6:55 AM 52.3 °F 50.0 °F 92% 30.25 in 10.0 mi SW 3.5 mph - N/A   Scattered Clouds
7:15 AM 52.0 °F 50.0 °F 93% 30.25 in 10.0 mi Calm Calm - N/A   Clear
7:35 AM 52.2 °F 50.4 °F 94% 30.26 in 10.0 mi Calm Calm - N/A   Mostly Cloudy
7:55 AM 54.0 °F 51.3 °F 91% 30.26 in 10.0 mi Calm Calm - N/A   Overcast
8:15 AM 55.6 °F 51.8 °F 87% 30.25 in 10.0 mi West 3.5 mph - N/A   Overcast
8:35 AM 57.7 °F 51.1 °F 78% 30.25 in 10.0 mi Calm Calm - N/A   Mostly Cloudy
8:55 AM 57.7 °F 50.5 °F 77% 30.26 in 10.0 mi Calm Calm - N/A   Scattered Clouds
9:15 AM 59.0 °F 50.9 °F 74% 30.26 in 10.0 mi Calm Calm - N/A   Scattered Clouds
9:35 AM 60.4 °F 51.4 °F 72% 30.26 in 10.0 mi Calm Calm - N/A   Clear
9:55 AM 61.9 °F 50.9 °F 67% 30.26 in 10.0 mi Calm Calm - N/A   Clear
10:15 AM 63.7 °F 50.4 °F 62% 30.26 in 10.0 mi ESE 3.5 mph - N/A   Clear
10:35 AM 64.6 °F 51.3 °F 62% 30.26 in 10.0 mi ESE 3.5 mph - N/A   Clear
10:55 AM 65.5 °F 51.6 °F 61% 30.26 in 10.0 mi Calm Calm - N/A   Clear
11:15 AM 67.1 °F 51.8 °F 58% 30.26 in 10.0 mi SE 5.8 mph - N/A   Clear
11:35 AM 68.2 °F 52.0 °F 56% 30.25 in 10.0 mi SE 6.9 mph - N/A   Scattered Clouds
11:55 AM 68.0 °F 52.5 °F 58% 30.25 in 10.0 mi South 4.6 mph - N/A   Mostly Cloudy
12:15 PM 68.0 °F 51.1 °F 55% 30.24 in 10.0 mi SSE 9.2 mph - N/A   Mostly Cloudy
12:35 PM 68.2 °F 50.2 °F 53% 30.24 in 10.0 mi ESE 5.8 mph - N/A   Overcast
12:55 PM 68.4 °F 51.3 °F 54% 30.23 in 10.0 mi SSE 11.5 mph - N/A   Overcast
1:15 PM 68.4 °F 51.1 °F 54% 30.23 in 10.0 mi SSE 10.4 mph - N/A   Mostly Cloudy
1:35 PM 68.5 °F 51.1 °F 54% 30.23 in 10.0 mi SSE 11.5 mph - N/A   Overcast
1:55 PM 71.2 °F 52.5 °F 52% 30.22 in 10.0 mi SSE 15.0 mph - N/A   Mostly Cloudy
2:15 PM 70.0 °F 51.4 °F 52% 30.22 in 10.0 mi SE 9.2 mph 18.4 mph N/A   Scattered Clouds
2:35 PM 70.9 °F 51.4 °F 50% 30.21 in 10.0 mi SSE 10.4 mph - N/A   Mostly Cloudy
2:55 PM 70.2 °F 50.9 °F 50% 30.21 in 10.0 mi SE 12.7 mph - N/A   Mostly Cloudy
3:15 PM 70.7 °F 50.9 °F 49% 30.20 in 10.0 mi South 8.1 mph 19.6 mph N/A   Scattered Clouds
3:35 PM 70.9 °F 50.5 °F 48% 30.20 in 10.0 mi SSE 12.7 mph 18.4 mph N/A   Scattered Clouds
3:55 PM 70.9 °F 50.7 °F 49% 30.20 in 10.0 mi SE 13.8 mph - N/A   Scattered Clouds
4:15 PM 69.8 °F 50.4 °F 50% 30.19 in 10.0 mi SSE 11.5 mph - N/A   Scattered Clouds
4:35 PM 69.6 °F 50.2 °F 50% 30.19 in 10.0 mi South 13.8 mph - N/A   Clear
4:55 PM 69.1 °F 49.8 °F 50% 30.20 in 10.0 mi SE 10.4 mph - N/A   Clear
5:15 PM 68.2 °F 50.0 °F 52% 30.20 in 10.0 mi SE 11.5 mph - N/A   Clear
5:35 PM 67.3 °F 50.0 °F 54% 30.20 in 10.0 mi SSE 12.7 mph - N/A   Clear
5:55 PM 65.7 °F 50.4 °F 58% 30.20 in 10.0 mi SSE 10.4 mph - N/A   Clear
6:15 PM 64.6 °F 50.4 °F 60% 30.21 in 10.0 mi SE 12.7 mph - N/A   Clear
6:35 PM 63.5 °F 50.4 °F 62% 30.21 in 10.0 mi SE 10.4 mph - N/A   Clear
6:55 PM 62.4 °F 50.9 °F 66% 30.22 in 10.0 mi SE 8.1 mph - N/A   Clear
7:15 PM 61.0 °F 51.1 °F 70% 30.21 in 10.0 mi SE 6.9 mph - N/A   Clear
7:35 PM 60.1 °F 51.1 °F 72% 30.22 in 10.0 mi SE 6.9 mph - N/A   Clear
7:55 PM 59.0 °F 52.0 °F 78% 30.22 in 10.0 mi SE 8.1 mph - N/A   Clear
8:15 PM 58.5 °F 52.2 °F 80% 30.23 in 10.0 mi SE 8.1 mph - N/A   Clear
8:35 PM 57.9 °F 52.3 °F 82% 30.24 in 10.0 mi SE 8.1 mph - N/A   Clear
8:55 PM 57.4 °F 52.7 °F 84% 30.24 in 10.0 mi SE 8.1 mph - N/A   Clear
9:15 PM 56.8 °F 52.7 °F 86% 30.25 in 10.0 mi SE 8.1 mph - N/A   Clear
9:35 PM 56.5 °F 52.7 °F 87% 30.25 in 10.0 mi SE 5.8 mph - N/A   Clear
9:55 PM 55.8 °F 52.9 °F 90% 30.25 in 10.0 mi SE 5.8 mph - N/A   Clear
10:15 PM 55.4 °F 52.7 °F 91% 30.26 in 10.0 mi SSE 3.5 mph - N/A   Clear
10:35 PM 55.4 °F 53.1 °F 92% 30.26 in 10.0 mi Calm Calm - N/A   Mostly Cloudy
10:55 PM 55.8 °F 53.6 °F 92% 30.26 in 10.0 mi Calm Calm - N/A   Overcast
11:15 PM 54.9 °F 52.9 °F 93% 30.26 in 10.0 mi Calm Calm - N/A   Mostly Cloudy
11:35 PM 54.1 °F 52.3 °F 94% 30.26 in 7.0 mi Calm Calm - N/A   Scattered Clouds
11:55 PM 53.8 °F 52.2 °F 94% 30.25 in 5.0 mi Calm Calm - N/A   Clear